Weather in Buda-Koshelyovo

Belarus     52°43′00″N   30°34′04″E
temp.,
°C
wind,
m/s
gust,
m/s
humid.,
%
clouds,
%
prec.,
mm/h
press.,
hPa
HPBL,
m
16 may, sun
sun1600:00+11sw359452 0.1 101096
03:00+10wsw3495100 0.1 101056
06:00+10wsw23965 0.0 101261
09:00+15sw23834 0.0 1012432
12:00+19sw336450 0.1 10121285
15:00+20sse235684 0.1 10121587
18:00+18e3574100 0.0 1011187
21:00+14ese478364 0.1 1011106
17 may, mon
mon1700:00+13se3487100 0.0 101159
03:00+13ese359275 0.0 101070
06:00+13e3691100 0.0 1010134
09:00+16e3883100 0.0 1009314
12:00+20ne3572100 0.1 1007650
15:00+23e576475 0.1 10041542
18:00+22n227494 1.6 1002137
21:00+15n2393100 2.4 100166
18 may, tue
tue1800:00+15ese3694100 0.1 1000115
03:00+16se6139753 0.7 999487
06:00+15se71296100 0.2 999520
09:00+14se61197100 0.6 999600
12:00+14s4797100 0.8 1000542
15:00+16ssw358351 0.9 1001684
18:00+18se3472100 0.1 1001899
21:00+14ese3795100 1.3 1001195
19 may, wed
wed1900:00+13ese349690 1.4 100080
03:00+12se2297100 1.4 100040
06:00+13e2398100 0.1 1001159
09:00+13s4598100 4.0 1001325
12:00+13s3490100 0.8 1002522
15:00+14s3589100 1.0 1002516
18:00+11wnw6896100 0.3 1003449
21:00+10wnw71295100 0.4 1004825
20 may, thu
thu2000:00+9w81595100 1.2 1005837
03:00+9w81596100 4.6 1005828
06:00+10w71495100 1.8 1006835
09:00+11w7119394 1.9 1008818
12:00+14wnw687582 0.1 10101197
15:00+15w467335 0.4 1011930
18:00+17nw346150 0.0 10121648
21:00+12nnw1170100 0.0 101310